Hot Springs, AR

10:58 PM CDT on September 28, 2016 (GMT -0500)
Hot Springs Memorial

Weather History for KHOT - November, 2011

Change the Weather History Date:

Tuesday, November 22, 2011

  Actual Average Record
Temperature  
Mean Temperature 58 °F -  
Max Temperature 66 °F 61 °F 77 °F (1974)
Min Temperature 50 °F 38 °F 18 °F (1964)
Degree Days  
Heating Degree Days 6    
Growing Degree Days 8 (Base 50)    
Moisture  
Dew Point 55 °F    
Average Humidity 85    
Maximum Humidity 100    
Minimum Humidity 63    
Precipitation  
Precipitation 0.23 in - - ()
Sea Level Pressure  
Sea Level Pressure 29.94 in    
Wind  
Wind Speed 9 mph (West)    
Max Wind Speed 29 mph    
Max Gust Speed 40 mph    
Visibility 8 miles    
Events Rain , Thunderstorm    
Averages and records for this station are not official NWS values.
T = Trace of Precipitation, MM = Missing Value Source: NWS Daily Summary

Daily Weather History Graph

Daily Weather History Graph

Search for Another Location

Airport or City:

Trip Planner

Search our weather history database for the weather conditions in past years. The results will help you decide how hot, cold, wet, or windy it might be!

Date:

Astronomy

Nov. 22, 2011 Rise Set
Actual Time 6:52 AM CST 5:04 PM CST
Civil Twilight 6:25 AM CST 5:31 PM CST
Nautical Twilight 5:54 AM CST 6:02 PM CST
Astronomical Twilight 5:24 AM CST 6:32 PM CST
Moon 3:48 AM CST (11/22) 3:00 PM CST (11/22)
Length of Visible Light 11h 06m
Length of Day
10h 12m
Waning Crescent, 9% of the Moon is Illuminated
Nov 22
Waning Crescent
Nov 25
New
Dec 2
First Quarter
Dec 10
Full
Dec 17
Last Quarter

Hourly Weather History & Observations

Time (CST) Temp. Dew Point Humidity Pressure Visibility Wind Dir Wind Speed Gust Speed Precip Events Conditions
12:11 AM 66.2 °F 64.4 °F 94% 29.85 in 4.0 mi South 11.5 mph 23.0 mph 0.07 in Rain , Thunderstorm Thunderstorms and Rain
12:22 AM 66.2 °F 64.4 °F 94% 29.82 in 1.8 mi South 28.8 mph 39.1 mph 0.25 in Rain , Thunderstorm Heavy Thunderstorms and Rain
12:28 AM 66.2 °F 64.4 °F 94% 29.87 in 0.8 mi SW 20.7 mph 40.3 mph 0.41 in Rain , Thunderstorm Heavy Thunderstorms and Rain
12:43 AM 66.2 °F 64.4 °F 94% 29.85 in 1.5 mi SSW 6.9 mph 18.4 mph 0.71 in Rain , Thunderstorm Heavy Rain
12:48 AM 66.2 °F 64.4 °F 94% 29.86 in 3.0 mi WSW 10.4 mph 16.1 mph 0.72 in Rain , Thunderstorm Rain
12:53 AM 66.2 °F 64.4 °F 94% 29.86 in 3.0 mi WSW 8.1 mph 16.1 mph N/A Rain , Thunderstorm Heavy Rain
1:03 AM 66.2 °F 64.4 °F 94% 29.85 in 4.0 mi West 3.5 mph - 0.03 in Rain , Thunderstorm Light Rain
1:12 AM 66.2 °F 62.6 °F 88% 29.87 in 4.0 mi SW 8.1 mph - 0.05 in Rain Rain
1:28 AM 64.4 °F 62.6 °F 94% 29.85 in 4.0 mi WSW 5.8 mph - 0.10 in Rain , Thunderstorm Heavy Thunderstorms and Rain
1:37 AM 64.4 °F 62.6 °F 94% 29.87 in 3.0 mi West 6.9 mph - 0.13 in Rain Heavy Rain
1:49 AM 64.4 °F 64.4 °F 100% 29.88 in 4.0 mi WNW 4.6 mph - 0.15 in Rain Rain
1:53 AM 64.9 °F 63.0 °F 93% 29.88 in 4.0 mi WNW 4.6 mph - 0.16 in Rain Rain
2:53 AM 63.0 °F 62.1 °F 97% 29.84 in 5.0 mi East 3.5 mph - 0.07 in Rain Rain
3:27 AM 62.6 °F 62.6 °F 100% 29.83 in 10.0 mi ESE 4.6 mph - 0.00 in   Overcast
3:53 AM 64.0 °F 62.1 °F 93% 29.81 in 10.0 mi SSE 3.5 mph - 0.00 in   Mostly Cloudy
4:08 AM 64.4 °F 62.6 °F 94% 29.85 in 10.0 mi SSW 4.6 mph - N/A   Mostly Cloudy
4:53 AM 64.0 °F 62.1 °F 93% 29.82 in 10.0 mi West 3.5 mph - N/A   Overcast
5:00 AM 64.4 °F 62.6 °F 94% 29.82 in 10.0 mi Calm Calm - N/A   Overcast
5:53 AM 64.0 °F 62.1 °F 93% 29.82 in 10.0 mi West 3.5 mph - N/A   Overcast
6:17 AM 64.4 °F 62.6 °F 94% 29.83 in 10.0 mi SSW 3.5 mph - N/A   Overcast
6:53 AM 64.0 °F 62.1 °F 93% 29.84 in 10.0 mi West 6.9 mph - N/A   Overcast
7:22 AM 62.6 °F 60.8 °F 94% 29.85 in 10.0 mi WSW 6.9 mph - N/A   Overcast
7:53 AM 62.1 °F 59.0 °F 90% 29.86 in 10.0 mi NW 9.2 mph 17.3 mph N/A   Overcast
8:00 AM 62.6 °F 59.0 °F 88% 29.87 in 10.0 mi NW 9.2 mph - 0.00 in Rain Light Rain
8:46 AM 57.2 °F 53.6 °F 88% 29.92 in 10.0 mi NW 10.4 mph 24.2 mph 0.00 in   Overcast
8:53 AM 55.9 °F 52.0 °F 87% 29.90 in 10.0 mi NW 9.2 mph 24.2 mph 0.00 in   Overcast
9:53 AM 55.0 °F 51.1 °F 86% 29.93 in 10.0 mi NW 10.4 mph 17.3 mph N/A   Overcast
10:10 AM 55.4 °F 51.8 °F 88% 29.94 in 10.0 mi NW 8.1 mph - N/A   Overcast
10:53 AM 55.9 °F 51.1 °F 84% 29.93 in 10.0 mi WNW 8.1 mph 16.1 mph N/A   Mostly Cloudy
11:10 AM 57.2 °F 51.8 °F 82% 29.95 in 10.0 mi NW 8.1 mph - N/A   Scattered Clouds
11:17 AM 57.2 °F 51.8 °F 82% 29.95 in 10.0 mi NW 8.1 mph - N/A   Mostly Cloudy
11:53 AM 57.2 °F 50.0 °F 77% 29.95 in 10.0 mi WNW 10.4 mph - N/A   Overcast
12:31 PM 60.8 °F 50.0 °F 68% 29.94 in 10.0 mi NW 5.8 mph - N/A   Scattered Clouds
12:53 PM 60.1 °F 50.0 °F 69% 29.92 in 10.0 mi WNW 8.1 mph - N/A   Partly Cloudy
1:53 PM 61.0 °F 50.0 °F 67% 29.94 in 10.0 mi Variable 6.9 mph - N/A   Partly Cloudy
2:34 PM 60.8 °F 50.0 °F 68% 29.95 in 10.0 mi Variable 5.8 mph - N/A   Mostly Cloudy
2:53 PM 60.1 °F 48.9 °F 67% 29.95 in 10.0 mi WNW 10.4 mph 17.3 mph N/A   Mostly Cloudy
3:04 PM 60.8 °F 48.2 °F 63% 29.96 in 10.0 mi WNW 10.4 mph 16.1 mph N/A   Scattered Clouds
3:36 PM 59.0 °F 48.2 °F 67% 29.98 in 10.0 mi WNW 5.8 mph 17.3 mph N/A   Mostly Cloudy
3:53 PM 57.2 °F 48.2 °F 72% 29.99 in 10.0 mi WNW 8.1 mph - N/A   Overcast
4:46 PM 55.4 °F 48.2 °F 77% 30.01 in 10.0 mi Variable 4.6 mph - N/A   Partly Cloudy
4:53 PM 55.0 °F 48.0 °F 77% 30.01 in 10.0 mi WNW 5.8 mph - N/A   Partly Cloudy
5:20 PM 55.4 °F 48.2 °F 77% 30.03 in 10.0 mi Variable 3.5 mph - N/A   Mostly Cloudy
5:53 PM 54.0 °F 48.0 °F 80% 30.04 in 10.0 mi Variable 3.5 mph - N/A   Mostly Cloudy
6:53 PM 53.6 °F 48.2 °F 82% 30.07 in 10.0 mi Variable 4.6 mph - N/A   Mostly Cloudy
7:03 PM 53.6 °F 46.4 °F 77% 30.08 in 10.0 mi NW 6.9 mph - N/A   Scattered Clouds
7:38 PM 53.6 °F 46.4 °F 77% 30.10 in 10.0 mi NW 8.1 mph - N/A   Mostly Cloudy
7:53 PM 54.0 °F 46.9 °F 77% 30.10 in 10.0 mi NW 8.1 mph - N/A   Overcast
8:53 PM 53.1 °F 46.0 °F 77% 30.13 in 10.0 mi Variable 4.6 mph - N/A   Overcast
9:50 PM 51.8 °F 46.4 °F 82% 30.15 in 10.0 mi Variable 5.8 mph - N/A   Scattered Clouds
9:53 PM 52.0 °F 46.0 °F 80% 30.14 in 10.0 mi NNW 6.9 mph - N/A   Partly Cloudy
10:53 PM 51.1 °F 45.0 °F 80% 30.16 in 10.0 mi West 3.5 mph - N/A   Scattered Clouds
11:05 PM 51.8 °F 46.4 °F 82% 30.16 in 10.0 mi Calm Calm - N/A   Mostly Cloudy
11:38 PM 51.8 °F 44.6 °F 76% 30.16 in 10.0 mi Variable 4.6 mph - N/A   Scattered Clouds
11:53 PM 50.0 °F 45.0 °F 83% 30.16 in 10.0 mi WNW 3.5 mph - N/A   Partly Cloudy